Location: Mohawk View
(42.7837°N, 73.7885°W)
Time: 02:14:07
(UTC+00:00)

Cosmos 2221 - Pass Details

Date: 17 June 2021
Orbit: 591 x 616 km, 82.5° (Epoch: 02 August)

Event Time Altitude Azimuth Distance (km) Brightness Sun altitude
Rises 06:11:00 0° 357° (N) 2,864 7.2 -21.6°
Reaches altitude 10° 06:13:17 10° 2° (N) 1,952 6.2 -21.5°
Maximum altitude 06:17:29 50° 79° (ENE) 768 3.2 -21.2°
Enters shadow 06:19:00 33° 133° (SE) 1,005 3.4 -21.1°
